Location: Unspecified
(0.0000°N, 0.0000°E)
Time: 10:09:30
(UTC+00:00)

Explorer 11/Cluster Stage 4 - Pass Details

Date: 03 November 2024
Orbit: 464 x 1202 km, 28.8° (Epoch: 05 December)

Event Time Altitude Azimuth Distance (km) Brightness Sun altitude
Exits shadow 04:17:21 33° 215° (SW) 901 6.7 -20.8°
Maximum altitude 04:18:54 58° 151° (SSE) 596 6.1 -20.4°
Drops below altitude 10° 04:22:31 10° 71° (ENE) 1,633 9.0 -19.5°
Sets 04:24:37 0° 66° (ENE) 2,480 10.0 -19.0°
